Temperature
7 7 7 7 7 7 6 7 7 9 9 10 11 10 9 8 8 7 7 7 7 7 7 7 7 7 7 7 7 6 6 6 6 6 6 6 5 6 5 5 6 5 5 5
6 6 6 6 6 7 7 7 7 8 8 10 9 8 8 8 7 7 7 7 7 7 7 7 7 7 7 7 6 6 6 6 6 6 5 5 5 5 5 5 5 5 5 5
6 6 6 7 8 7 7 7 7 7 9 9 8 8 8 7 7 7 7 7 7 7 7 7 7 7 7 7 6 6 6 6 6 6 5 5 5 5 5 5 5 5 5 5
5 5 6 9 8 7 7 7 7 7 8 8 8 7 7 7 6 7 7 7 7 7 7 7 7 7 7 6 6 6 6 6 6 6 5 5 5 5 5 5 5 4 4 4
5 5 7 8 7 6 6 7 8 7 7 7 6 6 7 7 7 6 6 6 6 7 7 7 7 7 6 6 6 6 6 6 6 6 5 5 5 5 5 4 4 4 4 4
4 4 6 9 7 5 6 8 8 6 7 6 6 7 8 7 6 6 6 6 6 6 6 6 6 6 6 6 6 6 6 6 5 5 5 5 5 5 4 4 4 3 3 3
4 4 6 8 6 5 7 9 7 6 6 5 6 6 6 6 5 5 5 6 6 6 6 6 6 6 6 6 6 6 6 5 5 5 5 5 4 4 4 4 3 3 3 3
4 4 6 7 5 6 8 7 6 6 6 5 5 5 5 5 5 5 5 5 5 5 5 6 5 5 5 6 6 5 5 5 5 5 5 4 4 4 4 3 3 3 2 2
5 7 7 6 6 6 6 6 6 5 5 5 4 4 4 4 4 4 5 5 5 5 5 5 5 5 5 5 5 5 5 5 4 4 4 4 4 3 3 3 3 3 2 2
4 5 6 5 5 5 5 5 5 5 4 4 4 4 4 4 4 4 4 4 4 4 4 5 5 5 5 5 5 4 4 4 4 4 4 4 3 3 3 3 3 2 2 2
4 6 5 5 5 5 5 5 4 4 4 4 3 3 3 3 3 4 4 4 4 4 4 4 4 4 4 4 4 4 4 4 4 4 4 3 3 3 3 3 3 2 2 2
5 6 6 6 5 5 4 4 4 4 4 4 3 3 3 3 3 3 3 3 3 3 3 4 4 4 4 4 4 4 4 4 3 3 3 3 3 3 3 2 2 2 2 2
5 5 4 4 4 4 3 3 3 3 3 3 3 3 2 2 3 3 3 3 3 3 3 3 4 4 4 4 4 4 3 3 3 3 3 3 3 2 2 2 2 2 1 1
3 3 3 3 3 3 3 3 2 2 2 2 2 2 2 2 2 2 3 3 3 3 3 3 3 4 4 3 3 3 3 3 3 3 3 3 2 2 2 2 2 1 1 1
3 2 2 2 2 2 2 2 2 2 2 2 2 2 2 2 2 2 2 2 2 3 3 3 3 3 3 3 3 3 3 3 3 3 2 2 2 2 2 1 1 1 1 1
2 2 1 1 1 1 1 1 1 1 1 1 1 1 1 1 1 2 2 2 2 2 3 3 3 3 3 3 3 3 2 2 2 2 2 2 2 1 1 1 1 1 1 0
0 0 1 1 1 1 1 1 1 1 1 1 1 1 1 1 1 1 2 2 2 2 2 2 3 3 3 3 2 2 2 2 2 2 2 2 1 1 1 1 1 0 0 0
0 0 0 0 0 0 0 0 0 0 0 0 1 1 1 1 1 1 1 1 1 2 2 2 2 2 2 2 2 2 2 2 2 1 1 1 1 1 1 0 0 0 -0 -1
0 0 0 0 0 0 -0 -0 -0 -0 -0 0 0 0 0 0 1 1 1 1 1 1 2 2 2 2 2 2 2 2 1 1 1 1 1 1 1 0 0 0 -0 -0 -1 -1
-0 -0 -0 -0 -0 -0 -0 -0 -0 -0 -0 -0 -0 -0 -0 0 0 0 0 0 1 1 2 2 2 2 2 2 1 1 1 1 1 1 1 0 0 0 -0 -0 -1 -1 -1 -1
-1 -1 -1 -1 -1 -1 -1 -1 -1 -1 -0 -1 -1 -1 -1 -0 -0 -0 -0 0 1 1 1 1 1 1 1 1 1 1 1 1 0 0 0 0 -0 -0 -1 -1 -1 -1 -1 -2
-1 -1 -1 -1 -1 -1 -1 -1 -1 -1 -1 -1 -1 -1 -1 -1 -1 -1 -0 -0 0 0 0 0 1 1 1 0 0 0 0 0 -0 -0 -0 -0 -0 -1 -1 -1 -1 -2 -2 -2
-1 -1 -1 -2 -2 -2 -1 -1 -1 -1 -1 -1 -1 -1 -1 -1 -1 -1 -1 -0 -0 -0 -0 0 0 0 -0 -0 -0 -0 -0 -0 -0 -0 -0 -1 -1 -1 -1 -1 -2 -2 -2 -2
-2 -2 -2 -2 -2 -2 -2 -1 -1 -1 -1 -1 -1 -1 -1 -2 -1 -1 -1 -1 -1 -0 -0 -0 -0 -0 -0 -1 -0 -1 -1 -1 -1 -1 -1 -1 -1 -1 -1 -2 -2 -2 -3 -3
-2 -2 -2 -2 -2 -2 -2 -2 -2 -2 -2 -2 -2 -2 -2 -2 -2 -1 -1 -1 -1 -1 -1 -1 -1 -1 -1 -1 -1 -1 -1 -1 -1 -1 -1 -1 -1 -2 -2 -2 -2 -3 -3 -3
-2 -3 -2 -2 -2 -2 -2 -3 -3 -3 -3 -3 -2 -2 -2 -2 -2 -2 -2 -1 -1 -1 -1 -1 -1 -1 -1 -1 -1 -1 -1 -2 -2 -2 -2 -2 -2 -2 -2 -2 -3 -3 -3 -3
-3 -3 -3 -3 -2 -2 -3 -3 -3 -3 -3 -3 -3 -3 -3 -3 -2 -2 -2 -2 -2 -2 -2 -2 -2 -2 -2 -2 -2 -2 -2 -2 -2 -2 -2 -2 -2 -2 -3 -3 -3 -3 -3 -3
Wind_Speed
14 15 14 16 17 16 17 17 14 16 19 21 18 16 16 14 13 12 11 10 9 8 8 8 8 8 8 8 7 7 7 7 7 6 5 5 5 5 5 4 4 4 4 3
12 12 14 18 21 21 21 21 22 23 23 19 15 12 12 12 11 11 11 11 10 10 9 9 8 8 8 8 7 7 8 8 7 7 6 6 6 5 5 4 4 4 5 4
9 9 11 13 14 15 12 14 14 17 15 13 12 12 12 11 11 11 12 12 11 10 9 9 9 8 9 8 7 7 8 7 7 7 7 7 6 5 5 5 5 5 5 5
6 7 9 5 1 6 10 13 15 15 15 14 13 14 13 12 11 12 11 12 11 10 10 9 8 8 8 7 8 8 8 8 7 7 7 7 7 6 6 5 5 5 5 5
4 7 11 10 5 4 7 9 10 13 15 13 11 11 9 6 8 10 12 12 11 10 10 9 8 7 7 8 8 8 9 9 8 8 8 8 8 7 6 6 6 6 5 5
6 7 8 5 0 1 3 6 3 5 8 8 7 9 9 9 10 12 12 11 11 10 9 9 8 6 8 9 9 10 10 9 8 8 8 8 8 7 6 6 6 5 5 5
12 10 10 7 2 3 4 3 3 5 8 8 8 11 14 15 14 13 13 12 11 10 9 9 8 7 9 9 10 10 8 8 8 8 8 8 7 6 6 6 6 5 5 5
8 10 11 4 4 6 7 6 7 9 10 11 13 15 16 16 16 14 13 12 11 10 10 9 8 8 10 11 10 7 7 8 8 8 7 6 7 6 6 6 6 6 5 5
10 11 8 5 9 9 9 11 12 12 13 13 15 17 17 16 16 15 14 13 11 11 11 10 8 9 11 11 8 7 8 8 8 8 7 7 8 8 7 7 6 6 6 5
12 15 16 15 15 15 14 15 16 15 16 16 17 18 18 17 16 15 15 13 11 11 12 11 10 9 11 9 7 8 9 8 8 8 8 8 7 7 7 7 7 7 7 6
17 18 17 16 16 16 16 16 17 18 17 17 18 18 18 17 16 15 14 13 11 11 12 13 11 10 9 8 8 9 9 8 8 8 8 8 8 7 8 8 8 8 7 7
18 17 15 18 16 17 18 19 19 19 19 18 16 18 17 16 15 14 14 13 12 12 12 12 11 11 9 8 9 9 8 8 7 7 7 7 7 6 7 7 8 9 7 7
22 20 19 20 20 18 19 19 18 17 18 18 17 16 16 16 15 14 14 13 13 13 12 12 11 11 9 8 9 10 9 8 7 7 7 8 7 7 6 6 8 10 11 11
17 16 18 19 18 17 17 17 17 16 16 16 15 15 14 15 14 14 14 13 12 12 12 11 10 11 9 7 8 9 9 9 8 7 7 8 8 8 7 7 7 6 9 12
15 15 16 16 16 16 15 14 15 15 15 15 14 13 13 14 15 15 14 12 11 11 11 10 10 10 7 7 8 9 8 7 7 7 7 7 7 7 7 8 7 6 6 7
11 11 12 13 14 14 14 14 14 15 15 15 14 14 13 13 14 14 13 11 10 12 11 10 11 9 7 7 8 7 8 9 8 7 7 7 8 8 8 8 8 7 7 7
10 10 11 12 13 14 14 14 14 15 15 15 15 14 13 13 13 13 12 11 11 12 11 11 10 8 7 8 8 7 6 7 9 7 7 8 8 8 8 8 8 8 7 8
10 12 13 14 14 15 16 15 15 15 14 14 14 13 13 12 13 13 12 11 10 11 10 10 8 7 7 8 7 6 6 6 7 7 7 8 8 8 8 8 8 8 6 7
10 11 13 13 14 14 15 15 15 14 14 13 13 13 13 12 12 12 11 10 10 11 9 7 8 7 7 8 7 6 6 7 7 7 7 8 8 7 7 7 7 7 7 7
11 12 13 13 13 13 14 14 14 14 13 13 13 13 13 12 11 11 10 10 10 8 7 6 6 6 6 7 7 6 7 7 7 7 7 7 8 7 7 7 8 7 7 7
12 13 14 14 14 14 14 14 13 14 14 13 13 13 13 12 11 10 9 10 9 7 6 7 6 5 5 5 7 6 7 7 7 7 7 7 7 7 7 8 7 7 7 7
13 14 15 15 15 15 14 13 13 14 15 14 13 13 12 12 11 10 10 9 8 7 5 5 5 6 6 6 5 6 7 7 7 7 7 7 7 8 8 8 8 7 7 7
14 15 15 15 15 15 15 14 14 13 13 13 13 13 12 11 9 9 10 7 6 7 6 5 6 7 8 6 5 6 7 7 7 7 7 7 7 7 7 8 7 7 7 7
15 15 15 15 14 14 15 15 13 12 12 13 12 12 11 10 9 8 8 8 8 8 6 6 8 9 8 5 5 6 6 7 7 7 7 7 7 7 7 7 7 7 7 8
15 15 15 14 14 13 13 13 12 12 12 10 11 10 9 8 8 8 7 7 8 7 6 6 8 8 6 5 5 6 6 6 6 6 6 6 6 6 6 7 7 7 7 7
15 14 14 14 13 12 11 10 10 10 9 10 9 8 7 6 7 7 7 7 7 7 6 5 5 5 5 5 5 5 5 5 6 6 6 6 7 7 6 7 8 7 6 6
14 13 12 12 11 10 10 10 10 10 9 9 10 8 7 6 6 6 6 6 5 5 4 4 4 4 4 4 4 4 4 5 5 5 5 5 5 6 6 7 6 6 6 6
Wind_Direction
267 274 272 267 262 247 237 241 251 265 272 281 290 294 295 296 296 298 304 304 297 289 282 272 263 254 247 246 239 232 231 232 232 229 227 225 225 223 217 215 218 218 217 218
276 270 270 270 262 252 248 248 251 264 274 280 290 292 291 292 293 296 302 303 299 292 285 276 265 256 248 245 239 232 231 231 229 222 219 220 219 218 215 211 209 209 212 209
276 287 291 271 256 238 234 234 240 252 263 281 289 295 297 298 296 295 299 299 298 293 285 278 269 257 248 243 236 231 232 230 226 221 218 218 215 213 216 213 208 209 213 210
280 291 255 255 212 232 237 247 237 249 265 276 284 296 296 287 285 294 300 300 297 293 288 282 274 261 250 241 233 231 229 227 221 217 217 215 212 213 215 213 210 210 211 212
251 267 275 279 258 224 236 269 249 249 265 278 293 299 290 281 283 291 297 297 292 289 285 279 272 263 250 239 233 232 230 225 219 214 214 211 211 212 210 207 207 206 205 207
238 254 260 273 225 212 250 273 270 250 279 292 299 299 308 318 306 299 297 296 292 290 284 274 268 256 245 241 235 234 230 227 220 213 212 213 212 209 206 205 207 202 204 207
236 249 265 269 177 172 246 299 330 279 287 287 281 288 304 307 303 300 296 295 291 286 279 273 268 250 245 245 241 238 231 224 219 214 214 213 208 204 200 199 200 203 207 208
222 234 252 206 165 223 274 306 299 293 291 287 285 290 295 297 298 298 295 293 290 285 280 276 264 247 247 248 247 238 225 222 218 214 210 205 201 198 197 196 199 204 205 209
221 238 274 239 246 264 289 290 293 293 292 290 290 292 295 295 295 294 292 289 287 282 281 278 263 244 247 251 244 230 221 221 220 213 209 204 201 196 195 197 201 206 206 209
255 260 268 272 271 275 278 282 286 288 289 290 290 292 294 294 293 291 288 286 284 280 277 276 269 253 248 249 236 223 223 222 216 212 209 204 203 199 199 200 203 206 208 210
261 271 280 274 271 275 282 284 286 289 288 286 287 288 289 291 290 288 286 283 279 274 273 273 272 264 254 242 227 222 223 221 215 211 208 205 206 206 206 210 210 206 207 205
262 270 275 282 287 287 286 287 289 290 290 288 284 284 287 288 288 286 284 282 278 273 270 270 268 263 254 237 222 218 219 218 214 209 205 205 204 209 211 215 211 214 214 206
263 275 278 282 286 286 285 285 287 287 286 287 287 284 284 285 285 283 280 278 274 271 269 269 265 261 252 235 221 219 220 217 214 209 205 204 203 203 204 207 211 214 212 210
266 273 276 279 284 288 288 288 289 288 286 285 285 285 283 283 283 281 277 276 274 271 267 264 261 258 249 231 222 223 223 218 213 212 207 205 205 204 202 199 199 206 210 210
267 267 270 279 285 290 293 293 291 290 290 290 288 285 283 282 282 281 280 278 274 269 265 260 256 255 244 226 222 223 221 218 213 211 208 206 205 204 203 204 205 201 193 197
272 276 277 280 285 293 299 298 293 293 295 293 291 289 286 283 282 282 280 275 269 265 263 258 255 252 236 221 221 223 223 216 209 209 206 204 203 203 204 203 203 202 201 195
272 279 283 286 290 294 296 295 291 290 292 291 292 293 291 287 285 282 280 274 267 264 262 256 254 248 228 219 218 221 219 213 204 208 209 205 204 205 204 202 204 207 207 197
268 274 280 284 288 292 294 294 291 289 288 288 291 290 287 284 282 282 283 282 276 270 262 254 249 240 229 221 217 217 214 210 206 211 211 208 206 205 204 205 206 207 205 196
286 286 287 287 286 286 288 291 291 290 290 290 289 287 285 281 279 281 283 279 273 269 265 252 239 233 230 221 210 213 211 209 208 210 210 207 206 205 203 205 206 206 201 195
296 296 297 296 294 291 290 292 294 292 290 288 286 285 284 284 284 282 278 272 265 265 264 253 241 236 229 218 204 209 209 209 209 208 207 205 205 205 204 204 205 205 203 201
299 300 300 298 297 294 291 292 292 290 290 287 282 281 283 285 284 279 275 275 273 265 255 242 237 234 223 213 204 210 207 208 208 207 207 207 206 206 205 204 203 204 204 204
295 296 296 296 295 294 293 291 289 288 288 285 281 280 282 284 282 277 265 265 274 260 252 245 241 232 222 213 215 213 210 209 209 208 207 207 206 206 206 205 204 203 203 204
290 290 290 290 290 291 291 289 285 284 283 282 279 277 276 277 276 273 275 271 270 256 251 250 242 228 221 220 220 216 213 211 210 210 209 208 207 206 207 206 206 202 201 203
286 287 286 287 288 286 286 286 285 281 279 279 276 272 271 274 273 264 265 267 261 257 258 251 236 226 221 224 218 215 214 213 211 210 209 208 208 207 207 206 205 203 202 201
281 282 282 282 283 282 282 284 285 284 283 281 279 275 268 260 262 270 272 265 257 253 258 245 229 223 220 220 215 214 213 212 207 203 205 206 207 208 207 205 204 202 200 200
278 279 279 276 275 276 279 281 282 283 284 284 284 281 276 270 266 266 265 260 255 249 249 243 229 219 217 214 213 212 209 206 207 208 208 207 207 207 207 205 199 199 197 195
277 277 276 276 274 268 268 270 273 275 275 276 280 281 278 275 271 266 262 258 252 246 241 234 224 217 214 211 208 208 208 207 205 205 205 206 205 205 203 198 197 193 190 189
Height
1509 1507 1507 1504 1501 1501 1501 1495 1491 1476 1472 1466 1467 1467 1466 1465 1463 1461 1459 1457 1455 1453 1451 1450 1449 1448 1447 1447 1446 1446 1445 1445 1445 1445 1445 1444 1444 1444 1444 1444 1444 1445 1445 1445
1508 1505 1503 1498 1491 1490 1489 1487 1483 1478 1471 1465 1466 1465 1463 1461 1460 1457 1455 1453 1451 1449 1447 1446 1445 1443 1442 1442 1442 1441 1441 1441 1441 1441 1441 1441 1441 1441 1441 1441 1441 1441 1441 1442
1502 1500 1499 1486 1475 1477 1478 1476 1476 1472 1465 1463 1463 1461 1460 1458 1457 1454 1452 1450 1447 1445 1443 1442 1440 1439 1438 1437 1437 1437 1436 1436 1436 1436 1437 1437 1437 1437 1437 1437 1437 1437 1438 1438
1503 1500 1493 1469 1472 1471 1471 1469 1469 1465 1462 1461 1460 1458 1456 1454 1453 1450 1448 1446 1443 1441 1439 1438 1436 1435 1433 1433 1432 1432 1432 1432 1432 1432 1432 1432 1433 1433 1433 1433 1433 1434 1434 1434
1503 1493 1478 1468 1468 1470 1468 1463 1462 1461 1460 1459 1458 1456 1451 1450 1449 1447 1445 1442 1439 1437 1435 1433 1431 1430 1429 1428 1427 1427 1427 1427 1427 1427 1427 1428 1428 1428 1429 1429 1429 1430 1430 1430
1500 1495 1480 1462 1467 1467 1468 1460 1458 1458 1458 1457 1457 1452 1447 1447 1445 1442 1440 1437 1434 1432 1429 1428 1427 1425 1424 1423 1422 1422 1422 1422 1422 1422 1423 1423 1423 1424 1424 1425 1425 1425 1426 1426
1495 1489 1470 1462 1465 1467 1464 1456 1456 1456 1455 1455 1453 1450 1447 1443 1440 1437 1434 1432 1429 1427 1424 1422 1421 1420 1418 1417 1417 1417 1417 1417 1417 1417 1418 1418 1419 1419 1420 1421 1421 1421 1422 1422
1486 1484 1469 1459 1462 1461 1455 1453 1453 1452 1451 1450 1447 1444 1441 1438 1434 1431 1428 1426 1424 1421 1418 1417 1416 1414 1412 1412 1412 1412 1411 1411 1412 1412 1412 1413 1414 1415 1415 1416 1416 1417 1418 1418
1470 1462 1456 1456 1454 1453 1452 1450 1449 1448 1446 1444 1441 1438 1434 1431 1428 1425 1422 1420 1418 1415 1413 1411 1410 1408 1406 1406 1406 1405 1405 1405 1406 1406 1407 1407 1408 1409 1410 1411 1412 1412 1413 1414
1462 1454 1452 1452 1450 1449 1448 1446 1444 1442 1440 1438 1435 1431 1428 1424 1421 1418 1415 1413 1411 1409 1406 1404 1403 1402 1400 1400 1400 1399 1399 1400 1400 1401 1401 1402 1403 1404 1405 1406 1407 1408 1409 1409
1454 1449 1447 1444 1444 1443 1441 1440 1438 1436 1434 1431 1428 1424 1421 1417 1414 1411 1408 1406 1404 1402 1399 1397 1396 1395 1394 1394 1393 1393 1393 1394 1394 1395 1396 1396 1398 1399 1400 1401 1403 1404 1405 1406
1443 1441 1442 1438 1438 1437 1435 1432 1430 1428 1425 1422 1420 1416 1413 1409 1406 1403 1401 1398 1396 1394 1392 1391 1389 1388 1388 1387 1387 1387 1387 1388 1388 1389 1390 1391 1392 1393 1395 1397 1398 1399 1400 1401
1437 1436 1435 1432 1431 1429 1427 1424 1422 1420 1417 1414 1411 1409 1405 1401 1398 1396 1393 1391 1389 1387 1385 1384 1382 1381 1381 1381 1380 1380 1381 1381 1382 1383 1384 1385 1386 1388 1389 1391 1392 1394 1395 1396
1431 1430 1427 1425 1423 1421 1419 1416 1414 1411 1408 1406 1403 1400 1397 1394 1390 1388 1385 1383 1382 1380 1378 1377 1375 1375 1375 1375 1375 1374 1375 1375 1376 1377 1378 1379 1381 1382 1384 1385 1386 1388 1390 1391
1423 1422 1420 1417 1416 1413 1411 1409 1406 1403 1400 1397 1395 1392 1389 1386 1383 1380 1378 1376 1374 1373 1371 1370 1369 1368 1369 1369 1368 1368 1369 1369 1370 1371 1372 1374 1375 1377 1378 1380 1381 1383 1384 1386
1415 1414 1413 1411 1409 1406 1404 1402 1399 1396 1393 1390 1387 1385 1382 1379 1375 1373 1370 1369 1367 1365 1364 1363 1362 1362 1362 1362 1362 1362 1363 1363 1364 1365 1366 1368 1369 1371 1372 1374 1375 1377 1379 1380
1409 1407 1406 1404 1402 1400 1398 1395 1393 1389 1386 1383 1380 1377 1374 1371 1368 1365 1363 1361 1360 1358 1357 1356 1355 1355 1356 1356 1356 1356 1356 1357 1358 1359 1360 1362 1363 1365 1366 1368 1370 1371 1373 1375
1404 1402 1400 1399 1396 1393 1391 1388 1385 1382 1379 1376 1373 1370 1367 1364 1360 1358 1356 1354 1352 1350 1349 1349 1349 1349 1349 1349 1349 1350 1350 1351 1352 1353 1354 1356 1357 1359 1360 1362 1364 1366 1367 1369
1398 1396 1394 1392 1390 1387 1384 1381 1378 1375 1372 1369 1366 1363 1360 1357 1354 1351 1349 1347 1344 1343 1342 1342 1342 1342 1342 1343 1343 1343 1344 1345 1346 1347 1348 1350 1351 1353 1354 1356 1358 1360 1361 1363
1393 1391 1389 1386 1383 1380 1377 1374 1371 1368 1365 1362 1359 1356 1353 1350 1348 1345 1342 1339 1338 1337 1336 1336 1336 1336 1336 1336 1337 1337 1338 1339 1340 1341 1342 1344 1345 1347 1348 1350 1352 1354 1355 1357
1387 1385 1382 1379 1376 1373 1371 1367 1364 1361 1358 1355 1352 1349 1346 1343 1341 1338 1335 1332 1331 1331 1330 1330 1330 1329 1330 1330 1331 1331 1332 1333 1334 1335 1337 1338 1340 1341 1343 1344 1346 1348 1350 1351
1381 1378 1375 1372 1369 1366 1363 1360 1357 1354 1350 1347 1345 1342 1339 1336 1334 1331 1329 1327 1325 1325 1324 1323 1323 1324 1324 1324 1325 1325 1326 1327 1328 1330 1331 1333 1334 1335 1337 1339 1340 1342 1344 1346
1374 1371 1368 1365 1362 1358 1354 1352 1349 1346 1343 1340 1337 1334 1332 1329 1327 1325 1322 1321 1320 1319 1318 1318 1318 1318 1318 1319 1319 1320 1320 1322 1323 1324 1326 1327 1329 1330 1331 1333 1335 1336 1338 1340
1365 1362 1359 1356 1353 1350 1346 1343 1341 1338 1335 1332 1329 1327 1325 1322 1319 1318 1316 1315 1314 1313 1312 1312 1312 1313 1313 1313 1313 1314 1315 1316 1317 1319 1320 1322 1323 1324 1326 1327 1329 1331 1333 1334
1356 1354 1351 1348 1345 1341 1338 1335 1332 1329 1326 1324 1321 1319 1317 1315 1313 1311 1310 1309 1308 1308 1307 1307 1307 1307 1307 1308 1308 1309 1310 1311 1312 1314 1315 1316 1318 1319 1321 1322 1324 1325 1327 1329
1347 1345 1342 1339 1336 1333 1330 1327 1324 1321 1319 1316 1313 1312 1310 1308 1307 1305 1304 1303 1302 1302 1302 1302 1302 1302 1302 1303 1303 1304 1305 1306 1308 1309 1310 1312 1313 1314 1316 1317 1319 1320 1322 1324
1337 1335 1332 1329 1326 1324 1322 1319 1317 1314 1312 1310 1307 1305 1303 1302 1300 1299 1298 1298 1297 1297 1297 1298 1298 1298 1298 1299 1299 1300 1301 1302 1303 1304 1306 1307 1308 1310 1311 1312 1314 1316 1317 1319